TimeMST,TemperatureF,Dew PointF,Humidity,Sea Level PressureIn,VisibilityMPH,Wind Direction,Wind SpeedMPH,Gust SpeedMPH,PrecipitationIn,Events,Conditions,WindDirDegrees,DateUTC
12:53 AM,26.1,12.9,58,29.91,10.0,NNE,5.8,-,N/A,,Clear,20,2013-02-06 07:53:00
1:53 AM,27.0,14.0,58,29.89,10.0,NNE,8.1,-,N/A,,Clear,30,2013-02-06 08:53:00
2:53 AM,26.1,14.0,60,29.87,10.0,North,6.9,-,N/A,,Clear,10,2013-02-06 09:53:00
3:53 AM,24.1,14.0,65,29.86,10.0,North,8.1,-,N/A,,Clear,350,2013-02-06 10:53:00
4:53 AM,25.0,14.0,63,29.86,10.0,North,8.1,-,N/A,,Clear,360,2013-02-06 11:53:00
5:53 AM,19.0,12.0,74,29.90,10.0,North,6.9,-,N/A,,Clear,360,2013-02-06 12:53:00
6:53 AM,18.0,10.9,74,29.91,10.0,ENE,8.1,-,N/A,,Clear,70,2013-02-06 13:53:00
7:53 AM,24.1,15.1,69,29.90,10.0,Calm,Calm,-,N/A,,Clear,0,2013-02-06 14:53:00
8:53 AM,32.0,16.0,52,29.86,10.0,ENE,5.8,-,N/A,,Clear,70,2013-02-06 15:53:00
9:53 AM,39.9,15.1,36,29.84,10.0,South,3.5,-,N/A,,Clear,170,2013-02-06 16:53:00
10:53 AM,46.0,15.1,29,29.79,10.0,Calm,Calm,-,N/A,,Clear,0,2013-02-06 17:53:00
11:53 AM,51.1,14.0,23,29.78,10.0,Variable,3.5,-,N/A,,Clear,0,2013-02-06 18:53:00
12:53 PM,55.0,15.1,21,29.71,10.0,South,3.5,-,N/A,,Clear,170,2013-02-06 19:53:00
1:53 PM,59.0,14.0,17,29.67,10.0,Variable,4.6,-,N/A,,Clear,0,2013-02-06 20:53:00
2:53 PM,62.1,5.0,10,29.65,10.0,WSW,10.4,-,N/A,,Clear,250,2013-02-06 21:53:00
3:53 PM,57.9,12.0,16,29.69,10.0,West,17.3,-,N/A,,Clear,280,2013-02-06 22:53:00
4:53 PM,55.0,12.9,19,29.71,10.0,WNW,12.7,21.9,N/A,,Scattered Clouds,290,2013-02-06 23:53:00
5:53 PM,52.0,14.0,22,29.80,10.0,NE,10.4,-,N/A,,Overcast,40,2013-02-07 00:53:00
6:53 PM,48.9,15.1,26,29.85,10.0,NNE,8.1,-,N/A,,Overcast,20,2013-02-07 01:53:00
7:53 PM,48.0,16.0,28,29.84,10.0,NW,8.1,-,N/A,,Overcast,320,2013-02-07 02:53:00
8:53 PM,48.0,21.0,34,29.85,10.0,NNE,20.7,26.5,N/A,,Overcast,20,2013-02-07 03:53:00
9:53 PM,45.0,19.9,37,29.85,10.0,NNE,20.7,26.5,N/A,,Partly Cloudy,30,2013-02-07 04:53:00
10:53 PM,41.0,19.0,41,29.85,10.0,NNE,13.8,-,N/A,,Partly Cloudy,20,2013-02-07 05:53:00
11:53 PM,39.9,19.9,45,29.85,10.0,NNE,12.7,21.9,N/A,,Clear,30,2013-02-07 06:53:00